Other Surface Observations
Issued by NWS Tucson, AZ

Home | Current Version | Previous Version | Text Only | Print | Product List | Glossary On
Versions: 1 2 3 4 5 6 7 8 9 10 11 12 13 14 15 16 17 18 19 20 21 22 23 24 25 26 27 28 29 30 31 32 33 34 35 36 37 38 39 40 41 42 43 44 45 46 47 48 49 50
000
SXUS55 KTWC 280716
OSOTWC

WEATHER ROUNDUP FOR SOUTHEAST ARIZONA
NATIONAL WEATHER SERVICE TUCSON AZ
1215 AM MST MON JUL 28 2014

AZZ504>506-514-280815-
LOCATION       SKY/WX    TMP DP  RH WIND       PRES   REMARKS
TUCSON         LGT RAIN  79  64  60 SE25G31   30.15F
DAVIS-MONTHAN  MOCLDY    75  66  73 SE21      30.13F
CHILDRENS PARK N/A      N/A N/A N/A N/A               PIMA CO DEQ
ALVERNON/22ND  N/A      N/A N/A N/A N/A               PIMA CO DEQ
CHERRY/GLENN   N/A      N/A N/A N/A N/A               PIMA CO DEQ
TANGERINE      N/A       86 N/A N/A E6                PIMA CO DEQ
CONTL RANCH    N/A       86  61  43 SE8               PIMA CO DEQ
GRANT/1ST      N/A       84  55  37 SE12              PIMA CO DEQ
CRAYCROFT/22ND N/A      N/A N/A N/A N/A               PIMA CO DEQ
GOLFLINKS/KOLB N/A      N/A N/A N/A N/A               PIMA CO DEQ
AJO/12TH       N/A       82  59  45 E12               PIMA CO DEQ
SAGUARO EAST   N/A      N/A N/A N/A N/A               PIMA CO DEQ
FAIRGROUNDS    N/A       82 N/A N/A SE14              PIMA CO DEQ
SAGUARO        N/A       86  50  29 SE8G17            *SABINO CYN
SAN CARLOS     N/A       73  63  71 N2                *SAN CARLOS
GREEN VALLEY   N/A       69  67  94 S6                PIMA CO DEQ
HORSE CAMP CYN N/A       69  60  73 E13G19            *ARAVAIPA CYN
RINCON MTNS    N/A       58  52  80 SE3G17            *NR MANNING CAMP
$$

AZZ509>511-280815-
LOCATION       SKY/WX    TMP DP  RH WIND       PRES   REMARKS
SAFFORD        CLOUDY    70  65  84 W9        30.17S
STRAY HORSE    N/A       58  49  73 N8G19             *
TRAIL CABIN    N/A       62  55  79 SW3               *N OF GRANVILLE
BLACK HILLS    N/A       70  65  85 N4G10             *N OF FT THOMAS
DRY LAKE       N/A       58  48  70 S4                *NATANES MTNS
NOON CREEK     N/A       63  60  90 W4                *PINALENO MTNS
COLUMBINE      N/A       49  46  88 S4G14             *PINALENO MTNS
GUTHRIE        N/A       65  51  60 NW16G22           *SW OF GUTHRIE
$$

AZZ502-503-513-280815-
LOCATION       SKY/WX    TMP DP  RH WIND       PRES   REMARKS
NOGALES        CLOUDY    72  62  71 N10G16    30.23R
SELLS          N/A       82  66  58 E2                *
SASABE         N/A       80  59  49 E12G18            *ALTAR VLY
HOPKINS        N/A       59  53  80 E15G43            *SANTA RITA MTNS
CARR CYN       N/A       62  58  88 S4G11             *W OF HEREFORD
$$

AZZ507-508-512-280815-
LOCATION       SKY/WX    TMP DP  RH WIND       PRES   REMARKS
SIERRA VISTA   TSTM      68  64  88 W10       30.29S
DOUGLAS        LGT RAIN  67  64  90 N16       30.24S
EMPIRE MTNS    N/A       64  63  96 SW6G21            *LAS CIENEGAS NCA
MULESHOE RANCH N/A       69  57  66 E9G17             *PRESERVE
HEADQUARTERS   N/A       63  62  95 E3                *CHIRICAHUA MTNS
$$

.............................NOTES.............................
THIS IS AN AUTOMATED COLLECTIVE WITH MINIMAL QUALITY CONTROL.
PIMA CO DEQ SITES HAVE NONSTANDARD WIND SENSOR HEIGHTS.
PIMA CO DEQ SITES DO NOT REPORT WIND GUSTS.
* INDICATES WIND SENSORS LOCATED AT 20 FEET INSTEAD OF 33 FEET.
..............................KEY..............................
SKY/WX - SKY CONDITION/WEATHER
TMP    - TEMPERATURE IN FAHRENHEIT
DP     - DEWPOINT IN FAHRENHEIT
RH     - RELATIVE HUMIDITY IN PERCENT
WIND   - DIRECTION AND SPEED IN MILES PER HOUR (MPH)
VRB    - VARIABLE WIND DIRECTION
PRES   - MEAN SEA LEVEL PRESSURE IN INCHES OF MERCURY
         F - FALLING PRESSURE   R - RISING PRESSURE
         S - STEADY PRESSURE
VSB    - VISIBILITY IN MILES
HX     - HEAT INDEX IN FAHRENHEIT
WCI    - WIND CHILL INDEX IN FAHRENHEIT
N/A    - NOT AVAILABLE
AFB    - AIR FORCE BASE
         DAVIS-MONTHAN IS DAVIS-MONTHAN AIR FORCE BASE
CYN    - CANYON
MTNS   - MOUNTAINS
NCA    - NATIONAL CONSERVATION AREA
NR     - NEAR
VLY    - VALLEY
CONTL  - CONTINENTAL
PIMA CO DEQ - PIMA COUNTY DEPT OF ENVIRONMENTAL QUALITY



USA.gov is the U.S. government's official web portal to all federal, state and local government web resources and services.